Terminal Aerodrome Forecast
Issued by NWS

Home | Current Version | Previous Version | Text Only | Print | Product List | Glossary On
Versions: 1 2 3 4 5 6 7 8 9 10 11 12 13
000
FTUS42 TJSJ 020000 RRA
TAFKPK
TAF
TKPK 020021Z 0200/0224 07018KT P6SM VCSH SCT015 SCT040
      TEMPO 0204/0206 VRB06G25KT BKN015
     FM020600 13020G35KT P6SM VCTS SCT017CB BKN040
     FM021800 10014KT P6SM SCT022
      AMD NOT SKED TIL 021100=

USA.gov is the U.S. government's official web portal to all federal, state and local government web resources and services.